Wind_Speed
18 17 16 16 17 17 17 18 18 16 17 17 17 18 18 18 18 18 18 18 18 17 17 17 16 16 17 17 17 17 17 18 18 17 18 19 19 18 19 19 19 19 20
17 17 17 17 17 18 18 18 18 17 18 18 19 19 19 19 19 18 19 18 17 17 17 17 16 17 17 17 16 16 17 18 17 18 19 19 19 19 19 19 19 19 19
17 18 18 18 18 19 19 19 18 18 19 19 19 19 20 19 19 19 18 18 17 18 18 18 17 17 17 17 17 16 16 16 18 19 19 19 19 18 18 19 19 19 19
19 19 18 18 19 19 19 19 18 18 19 19 19 19 19 19 19 19 18 18 18 18 18 18 18 18 17 18 18 17 16 16 17 17 17 17 18 17 17 18 19 19 20
19 19 20 19 19 19 19 19 18 18 18 18 18 18 18 18 19 19 19 18 18 18 18 19 19 19 18 18 18 17 17 17 17 17 17 18 18 18 18 17 18 18 19
20 20 21 20 20 20 20 19 19 18 18 18 18 18 18 18 19 19 19 19 19 18 19 18 18 19 18 18 17 18 17 17 18 18 18 18 19 19 18 18 18 18 19
20 20 20 20 20 20 19 19 19 18 18 18 18 19 19 18 18 19 19 19 18 18 18 18 19 19 18 17 16 17 17 18 18 19 18 19 19 20 19 19 19 19 19
19 19 19 19 19 20 20 19 19 19 18 18 18 18 18 18 18 18 19 19 18 18 18 18 19 18 17 17 17 17 17 18 18 19 19 19 18 19 20 19 20 20 20
18 18 18 18 19 19 19 19 19 19 18 18 18 18 18 18 18 18 18 18 18 18 18 18 18 17 17 17 18 17 17 18 18 19 19 19 19 18 19 20 19 20 19
19 18 18 18 18 18 19 18 18 18 18 18 18 18 18 18 18 18 18 17 16 16 17 18 17 17 17 17 17 17 17 17 18 18 18 18 19 19 19 19 19 19 19
19 19 18 18 18 18 18 18 17 17 17 17 17 17 17 18 18 19 18 17 17 17 17 17 16 16 16 17 17 17 17 17 17 17 17 17 17 17 17 18 18 18 19
19 19 18 19 19 19 18 18 17 17 17 17 17 17 17 18 18 19 19 18 17 17 17 16 16 17 17 17 17 17 17 17 17 16 17 18 18 17 17 18 18 19 19
19 19 19 19 19 19 18 17 17 17 16 16 17 17 17 18 19 19 19 18 18 17 16 16 17 17 17 17 18 18 17 17 17 17 17 17 18 18 19 19 19 20 20
20 20 19 19 18 18 17 17 17 17 16 17 17 17 17 18 18 19 19 19 18 17 17 18 18 18 18 18 18 18 18 18 18 18 19 19 19 20 20 20 20 21 21
20 19 19 19 18 17 16 16 17 17 17 17 17 17 17 18 18 19 19 18 18 18 18 18 19 18 18 18 18 18 18 19 19 19 19 20 20 21 21 21 21 22 22
19 19 18 18 18 18 17 16 16 17 18 18 18 18 18 19 19 19 19 18 18 18 18 18 18 19 19 18 18 18 18 18 19 19 20 20 20 20 22 22 22 22 22
20 20 19 19 18 18 18 18 17 17 18 18 18 18 19 19 20 20 19 19 19 19 19 19 19 18 18 18 18 18 18 19 19 19 20 20 19 21 21 22 22 21 21
20 18 19 19 19 19 19 18 19 19 19 18 18 18 19 19 19 19 19 19 20 21 20 20 19 19 19 19 19 18 18 18 18 19 19 20 20 21 22 22 21 21 21
20 21 20 20 20 20 19 19 19 19 20 20 19 19 19 19 19 19 20 20 20 20 20 19 19 19 19 19 19 18 18 18 19 19 20 20 21 22 22 22 22 22 22
22 22 21 21 20 20 19 19 19 20 20 21 21 21 20 20 20 20 20 20 20 20 20 20 20 20 19 19 19 19 19 19 19 20 20 20 21 22 22 22 22 22 23
21 20 20 20 20 20 20 20 20 21 21 21 22 23 22 21 21 21 21 21 21 21 21 20 20 20 19 19 19 19 19 19 20 20 20 21 22 22 23 23 23 23 24
22 21 20 20 20 20 21 21 21 21 21 21 22 22 21 21 21 21 21 21 22 21 20 20 20 20 20 20 21 21 20 20 21 21 21 21 22 23 23 23 23 23 23
22 22 21 22 22 22 21 21 21 21 21 21 21 21 21 21 21 21 21 21 21 21 20 20 20 21 21 21 21 21 21 21 21 21 21 22 23 23 23 23 23 23 23
23 23 22 22 22 22 22 21 22 23 23 23 23 22 21 21 21 21 21 22 21 21 20 20 21 21 22 22 21 22 22 23 22 22 22 22 23 23 23 23 23 23 23
23 23 22 22 22 22 22 22 22 23 23 23 23 23 22 22 22 21 22 22 21 21 21 21 21 21 22 21 21 21 22 22 22 22 22 22 22 23 23 22 22 23 22
24 23 23 23 22 22 22 22 22 22 22 22 22 22 22 22 22 23 23 22 21 21 21 21 21 21 21 21 21 21 21 22 21 21 21 21 21 22 22 22 22 22 22
Wind_Direction
284 285 285 287 288 290 292 295 295 290 288 286 286 287 290 292 294 293 291 290 291 292 291 290 291 291 289 287 281 275 269 266 267 268 269 270 270 269 268 267 267 266 263
284 285 284 287 287 289 292 294 294 289 288 289 287 286 290 292 292 292 292 291 292 293 294 292 290 289 291 289 284 277 274 272 269 270 271 269 270 270 268 267 268 266 263
286 285 284 286 287 288 289 290 292 291 290 289 288 289 290 291 292 293 292 291 292 291 293 292 290 290 291 290 286 281 277 276 273 272 274 274 271 271 271 268 268 268 265
286 286 286 284 285 286 286 288 291 291 291 291 291 289 288 289 291 293 293 292 291 291 293 291 290 290 288 287 286 282 276 274 274 275 277 277 275 273 273 271 271 268 267
284 284 285 286 284 284 285 286 287 288 290 292 292 290 288 288 289 292 292 292 291 291 291 290 289 289 288 285 283 279 276 273 274 275 276 277 275 274 274 274 272 268 266
283 283 283 283 283 282 283 284 286 287 289 291 291 291 290 290 290 292 291 291 291 291 290 287 286 288 288 285 281 277 276 274 274 276 277 277 274 272 275 276 273 269 267
284 284 284 284 284 283 282 283 286 287 289 291 291 290 289 291 291 291 291 292 293 295 294 289 288 288 288 285 282 280 276 275 275 276 278 277 275 271 272 273 273 271 269
286 288 287 285 284 283 283 285 286 286 287 288 288 289 290 291 292 292 292 293 294 295 295 294 291 289 286 284 283 283 280 279 278 277 276 277 275 272 272 274 276 272 271
289 289 288 285 285 284 284 284 287 287 286 286 286 287 290 290 292 291 291 294 294 294 295 297 295 290 286 285 285 283 282 280 278 278 276 275 274 274 273 275 277 277 274
291 290 287 287 285 285 284 284 284 284 285 286 287 288 289 293 293 292 291 293 295 296 298 298 296 292 288 287 284 282 282 279 277 276 275 273 272 272 274 276 278 278 277
291 291 289 288 287 286 284 282 282 282 284 284 286 286 287 290 291 291 292 291 292 295 298 297 296 294 291 286 282 282 282 280 278 276 275 274 276 279 279 280 282 281 281
288 290 289 289 288 288 286 282 280 281 282 282 284 285 288 290 292 292 291 290 290 291 294 296 297 296 294 290 286 285 285 285 283 280 278 277 277 279 280 282 285 285 283
289 288 289 290 289 287 285 281 280 281 281 281 283 286 288 290 293 292 292 291 290 290 291 294 296 297 295 291 289 287 284 283 281 280 280 280 280 280 282 284 285 286 284
285 287 289 289 289 289 285 281 280 281 281 281 283 286 287 290 292 293 293 293 292 290 290 292 294 294 293 291 291 289 283 281 279 279 279 278 279 279 282 285 287 287 285
281 283 287 288 286 285 284 281 280 278 280 282 283 286 289 289 291 292 293 293 292 290 290 291 292 292 292 291 291 289 285 282 280 280 279 277 278 280 282 284 286 287 286
279 282 286 287 286 283 285 285 285 282 281 282 283 285 286 288 289 290 290 290 290 289 289 292 293 293 292 290 289 288 286 283 282 281 279 278 280 280 282 285 287 287 287
276 279 283 286 284 283 285 285 286 285 284 284 284 286 287 287 287 287 288 290 290 290 289 291 291 293 293 292 290 288 286 284 282 280 280 279 280 282 285 287 288 288 290
276 277 282 282 280 281 280 283 283 283 285 285 285 288 290 291 290 288 289 291 292 291 292 291 291 291 291 291 290 286 284 284 282 282 282 281 282 285 286 286 287 288 290
275 280 280 278 277 278 279 281 281 284 288 289 288 289 292 292 291 289 289 290 292 294 293 291 293 293 292 292 292 290 286 284 283 282 283 282 283 285 285 285 286 288 289
275 276 275 276 278 278 278 279 280 282 287 289 289 289 291 290 290 291 290 291 293 292 292 291 292 294 292 292 290 290 287 285 284 284 285 284 284 285 284 285 287 288 289
273 275 275 276 276 275 277 279 280 281 283 286 288 287 289 288 287 289 289 291 291 289 289 290 289 291 291 290 289 288 288 286 286 286 286 286 285 286 287 287 288 289 290
272 274 275 275 275 276 277 278 279 282 283 285 286 286 286 285 286 288 289 290 290 289 288 289 288 289 289 289 287 286 287 288 289 288 287 288 287 287 288 288 289 291 290
270 271 273 273 275 277 278 278 279 280 281 284 286 287 286 285 287 287 289 289 288 288 288 289 290 289 289 289 287 285 285 286 289 290 289 288 288 289 288 286 288 290 291
269 271 272 272 274 276 277 278 280 280 280 282 285 286 285 285 285 285 287 289 290 289 289 290 291 291 291 289 287 286 284 285 287 288 289 289 289 290 290 289 290 291 291
269 270 270 271 273 275 276 277 279 280 281 281 283 286 287 284 285 286 287 287 288 290 292 292 292 290 290 289 286 285 286 287 287 286 286 288 287 288 290 291 291 290 290
270 270 270 272 273 274 275 278 279 280 281 281 283 285 287 287 287 287 286 288 291 289 288 289 291 291 288 286 288 288 287 286 286 286 287 289 290 291 292 292 292 292 291
Height
5846 5846 5846 5846 5846 5845 5845 5843 5842 5841 5840 5840 5839 5838 5838 5837 5836 5835 5834 5833 5832 5831 5830 5829 5828 5827 5826 5825 5824 5824 5824 5825 5825 5826 5826 5826 5826 5826 5827 5828 5828 5829 5830
5843 5843 5843 5843 5842 5842 5841 5840 5839 5838 5837 5837 5836 5835 5834 5833 5832 5831 5830 5829 5828 5827 5826 5825 5824 5824 5823 5822 5821 5821 5820 5820 5820 5821 5821 5822 5822 5822 5822 5822 5823 5823 5825
5840 5839 5839 5840 5839 5838 5837 5837 5836 5835 5834 5833 5832 5831 5830 5830 5829 5828 5826 5825 5824 5823 5822 5821 5821 5820 5819 5818 5817 5817 5817 5816 5816 5816 5816 5816 5816 5817 5817 5817 5818 5819 5820
5837 5835 5834 5835 5835 5834 5834 5833 5832 5831 5830 5829 5828 5827 5827 5826 5825 5824 5823 5821 5820 5819 5818 5817 5817 5816 5815 5815 5814 5813 5813 5812 5812 5812 5811 5811 5811 5811 5812 5813 5814 5814 5815
5833 5832 5831 5831 5831 5831 5830 5829 5828 5828 5827 5826 5825 5824 5823 5822 5821 5820 5819 5818 5817 5815 5814 5813 5813 5812 5811 5810 5810 5809 5808 5808 5808 5808 5807 5807 5806 5806 5807 5808 5809 5809 5810
5830 5829 5828 5827 5827 5826 5826 5825 5825 5824 5823 5822 5821 5820 5819 5818 5817 5816 5815 5814 5813 5812 5810 5809 5808 5808 5807 5806 5805 5805 5804 5804 5803 5803 5802 5802 5802 5802 5802 5802 5803 5804 5804
5826 5825 5824 5823 5823 5822 5822 5821 5820 5820 5819 5818 5817 5816 5815 5814 5813 5812 5811 5809 5808 5807 5806 5805 5804 5803 5802 5801 5801 5800 5800 5799 5799 5798 5798 5797 5797 5797 5798 5798 5798 5799 5799
5822 5821 5820 5819 5818 5818 5817 5817 5816 5815 5815 5814 5813 5812 5811 5810 5809 5808 5807 5805 5804 5803 5802 5801 5799 5798 5797 5797 5796 5796 5795 5795 5794 5794 5793 5793 5793 5793 5793 5793 5793 5793 5794
5818 5817 5816 5815 5814 5813 5813 5812 5812 5811 5810 5810 5809 5808 5807 5806 5805 5804 5803 5801 5800 5799 5798 5796 5795 5794 5793 5792 5792 5791 5791 5790 5790 5789 5789 5788 5788 5788 5788 5788 5788 5788 5788
5814 5813 5811 5810 5810 5809 5808 5808 5807 5807 5806 5806 5805 5804 5803 5802 5801 5800 5799 5798 5796 5795 5794 5792 5791 5790 5789 5788 5787 5787 5786 5786 5785 5784 5784 5784 5783 5783 5783 5783 5782 5782 5783
5809 5808 5807 5806 5806 5805 5804 5803 5803 5802 5802 5802 5801 5800 5799 5798 5797 5796 5795 5794 5792 5791 5790 5788 5787 5786 5784 5783 5783 5782 5782 5781 5780 5780 5780 5779 5779 5779 5778 5778 5778 5777 5777
5805 5804 5802 5802 5801 5801 5800 5800 5799 5799 5798 5797 5797 5796 5795 5794 5793 5792 5790 5789 5788 5787 5785 5784 5783 5782 5780 5779 5778 5777 5777 5776 5776 5775 5775 5775 5775 5774 5774 5774 5773 5772 5771
5801 5800 5798 5798 5797 5796 5796 5795 5795 5794 5794 5793 5793 5792 5791 5790 5789 5788 5786 5785 5783 5782 5781 5780 5779 5777 5776 5775 5773 5773 5772 5772 5771 5771 5771 5770 5770 5770 5769 5769 5768 5767 5766
5796 5795 5794 5793 5793 5791 5791 5791 5791 5790 5789 5789 5788 5788 5787 5786 5785 5783 5782 5780 5779 5778 5777 5776 5774 5773 5771 5770 5769 5767 5767 5766 5766 5766 5766 5766 5765 5765 5765 5764 5763 5762 5761
5792 5791 5790 5789 5788 5787 5786 5787 5786 5786 5785 5785 5784 5783 5782 5781 5780 5779 5777 5776 5775 5773 5772 5771 5770 5768 5766 5765 5764 5763 5762 5761 5761 5761 5760 5760 5760 5760 5759 5758 5758 5757 5756
5787 5786 5785 5785 5784 5783 5782 5782 5782 5781 5781 5780 5779 5779 5778 5776 5775 5774 5773 5771 5770 5768 5767 5766 5764 5762 5761 5759 5758 5757 5756 5756 5756 5755 5755 5755 5755 5754 5754 5753 5752 5751 5750
5782 5781 5781 5780 5779 5779 5778 5777 5777 5777 5776 5775 5774 5773 5772 5771 5770 5768 5767 5766 5765 5763 5762 5761 5759 5757 5755 5754 5753 5752 5751 5751 5750 5750 5750 5749 5749 5749 5748 5747 5746 5745 5744
5776 5775 5775 5775 5775 5775 5774 5773 5772 5771 5771 5770 5769 5768 5767 5766 5764 5763 5762 5761 5760 5758 5757 5755 5754 5752 5751 5749 5748 5746 5746 5745 5745 5744 5744 5743 5743 5742 5742 5741 5740 5739 5737
5770 5770 5770 5770 5770 5769 5769 5768 5767 5766 5766 5765 5764 5763 5762 5760 5759 5758 5757 5756 5754 5753 5751 5750 5748 5747 5746 5744 5743 5742 5741 5740 5740 5739 5738 5737 5737 5736 5735 5735 5734 5733 5731
5765 5765 5765 5764 5764 5764 5763 5762 5761 5761 5761 5760 5758 5757 5756 5755 5754 5753 5751 5750 5749 5747 5746 5744 5743 5742 5740 5739 5738 5736 5736 5735 5734 5733 5732 5731 5731 5730 5729 5728 5727 5726 5725
5759 5759 5759 5758 5758 5758 5758 5757 5756 5755 5755 5754 5752 5751 5750 5749 5748 5747 5746 5744 5743 5741 5740 5739 5737 5736 5735 5733 5732 5731 5730 5729 5728 5728 5727 5726 5725 5724 5723 5722 5720 5719 5717
5754 5753 5753 5752 5752 5752 5752 5751 5750 5749 5748 5747 5746 5745 5744 5743 5742 5741 5740 5738 5737 5735 5734 5733 5731 5730 5729 5727 5726 5725 5725 5724 5723 5722 5721 5719 5718 5717 5716 5715 5713 5712 5710
5747 5747 5747 5747 5746 5746 5745 5745 5744 5743 5743 5742 5740 5739 5738 5737 5736 5735 5733 5732 5730 5729 5728 5727 5725 5724 5723 5721 5720 5719 5719 5718 5717 5715 5714 5713 5712 5710 5709 5708 5707 5705 5703
5741 5741 5741 5741 5740 5740 5739 5738 5738 5737 5736 5735 5734 5733 5732 5731 5730 5728 5727 5726 5724 5723 5722 5720 5719 5717 5716 5715 5714 5713 5712 5711 5710 5709 5708 5707 5705 5704 5702 5701 5700 5698 5696
5734 5734 5734 5734 5734 5733 5733 5732 5731 5730 5729 5728 5727 5726 5725 5724 5723 5722 5720 5719 5718 5717 5715 5714 5712 5711 5710 5709 5708 5707 5706 5704 5703 5702 5701 5700 5699 5698 5696 5695 5693 5691 5690
5727 5727 5727 5727 5727 5727 5726 5726 5725 5724 5723 5722 5720 5719 5718 5717 5716 5715 5714 5712 5711 5710 5709 5707 5706 5705 5703 5702 5701 5700 5699 5698 5697 5696 5695 5694 5693 5691 5690 5688 5687 5685 5684